Location: Unspecified
(0.0000°N, 0.0000°E)
Time: 06:16:29
(UTC+00:00)

Hubble Space Telescope - Visible Passes

Search period start: 22 January 2018 00:00
Search period end: 01 February 2018 00:00
Orbit: 537 x 541 km, 28.5° (Epoch: 21 January)

Date Brightness Start Highest point End Pass type
(mag) Time Alt. Az. Time Alt. Az. Time Alt. Az.
22 Jan 2.6 04:04:26 30° SE 04:04:26 30° SE 04:06:36 10° ESE visible
22 Jan 3.1 05:41:36 10° WSW 05:43:43 14° SSW 05:45:52 10° S visible
23 Jan 3.2 03:54:54 20° SE 03:54:54 20° SE 03:56:16 10° SE visible
24 Jan 3.8 03:45:19 13° SE 03:45:19 13° SE 03:45:49 10° SE visible
